Overview Statistics Trail Chart Weather Telemetry Raw packets
 

This is the latest recevied weather packets stored in our database for station/object KI6SYE. If no packets are shown the sender has not sent any weather packets the latest 10 day(s).

<< 88 89 90 91 92 93 94 >>
Time Temp. Humidity Pressure Rain* Wind** Luminosity Snow
1788030233 26.11° C 76% 1011.8 hPa 0 mm - 850 W/m² -
1788029928 26.11° C 76% 1012.1 hPa 0 mm - 505 W/m² -
1788029623 26.11° C 74% 1012.3 hPa 0 mm - 516 W/m² -
1788029318 26.67° C 73% 1012.2 hPa 0 mm - 633 W/m² -
1788029017 26.67° C 73% 1012.2 hPa 0 mm - 625 W/m² -
1788028717 26.11° C 73% 1012.4 hPa 0 mm - 674 W/m² -
1788028411 26.67° C 73% 1012.2 hPa 0 mm - 745 W/m² -
1788028107 26.11° C 75% 1012.4 hPa 0 mm - 649 W/m² -
1788027806 26.67° C 73% 1012.4 hPa 0 mm - 411 W/m² -
1788027501 26.67° C 74% 1012.4 hPa 0 mm - 527 W/m² -
1788027196 26.67° C 75% 1012.3 hPa 0 mm - 752 W/m² -
1788026895 26.67° C 77% 1012.3 hPa 0 mm - 560 W/m² -
1788026591 26.11° C 78% 1012.4 hPa 0 mm - 583 W/m² -
1788026290 26.11° C 77% 1012.6 hPa 0 mm - 648 W/m² -
1788025986 26.11° C 77% 1012.3 hPa 0 mm - 609 W/m² -
1788025685 26.11° C 76% 1012.6 hPa 0 mm - 248 W/m² -
1788025385 26.67° C 76% 1012.4 hPa 0 mm - 360 W/m² -
1788025080 26.67° C 77% 1012.4 hPa 0 mm - 648 W/m² -
1788024774 26.67° C 76% 1012.6 hPa 0 mm - 598 W/m² -
1788024471 26.67° C 77% 1012.7 hPa 0 mm - 590 W/m² -
1788024170 26.67° C 78% 1012.7 hPa 0 mm - 552 W/m² -
1788023866 26.11° C 79% 1012.6 hPa 0 mm - 540 W/m² -
1788023561 25.56° C 81% 1012.7 hPa 0 mm - 553 W/m² -
1788023255 26.11° C 81% 1012.7 hPa 0 mm - 532 W/m² -
1788022950 25.56° C 82% 1012.7 hPa 0 mm - 527 W/m² -

* Rain latest hour (hover to see other rain measurements)
** Current wind speed in m/s (hover to see current wind gust speed)